sat.trackr.live / text

‹ back to catalog

HMU-SAT2

NORAD 67688 · 1998-067YE

PAYLOAD ACTIVE UNKNOWN

§ Identity

Operator
Country
JPN
Launch date
1998-11-20
Launch site
TYMSC
Launch vehicle
Mass (kg)
RCS (m²)

Purposes: station

External: N2YO · Heavens-Above · Gunter

§ Orbital elements

Epoch: 2026-09-19T11:34:15.247488Z

Period
91.19 min
Inclination
51.6246°
Eccentricity
0.0007936
Mean motion
15.79194602 rev/d
Perigee alt
327.4 km
Apogee alt
338.0 km
Semi-major
6,710.9 km
B*
7.3260e-4
RAAN
171.4040°
Arg perigee
160.9140°
Mean anomaly
199.2160°
Rev number
3,503

§ Raw data

HMU-SAT21 67688U 98067YE  26262.48212092  .00135849  00000+0  73260-3 0  99912 67688  51.6246 171.4040 0007936 160.9140 199.2160 15.79194602 35037

JSON: /api/v1/satellites/67688 · /tle

For live sub-satellite position, see the globe view (requires WebGL).

§ Visibility from observer

Set your observer location to see the next 7 days of passes ≥ 10°. The values pass through the URL so the page stays shareable.

No JS? Fill the form by hand. The geolocation button needs JavaScript.